Location: Baia Mare
(47.6567°N, 23.5850°E)
Time: 05:27:15
(UTC+02:00)

ISS - Pass Details

Date: 03 March 2018
Orbit: 403 x 407 km, 51.6° (Epoch: 18 February)

Event Time Altitude Azimuth Distance (km) Brightness Sun altitude
Exits shadow 06:16:34 11° 250° (WSW) 1,427 -1.7 -8.6°
Maximum altitude 06:19:45 79° 336° (NNW) 416 -3.8 -8.1°
Drops below altitude 10° 06:23:02 10° 65° (ENE) 1,462 0.2 -7.5°
Sets 06:25:08 0° 67° (ENE) 2,324 1.4 -7.2°
